Flag for Canada Weather past 2 weeks in Cranbrook, British Columbia, Canada

55 °F

Passing clouds.

Feels Like: 55 °F
Forecast: 39 / 63 °F
Wind: 5 mph from North

Location: Cranbrook

Current Time: Oct 13, 2015 at 1:32:45 PM

Latest Report: Oct 13, 2015 at 1:00 PM

Visibility: 25 mi

Pressure: 30.13 "Hg (26.96 "Hg at 933m altitude)

Humidity: 51%

Dew point: 37 °F

Location of CranbrookLocation

Historic Weather in Cranbrook — Graph


Cranbrook temperature yesterday

Maximum temperature yesterday: 55 °F (at 4:00 PM)
Minimum temperature yesterday: 36 °F (at 7:00 AM)
Average temperature yesterday: 46 °F

Past Weeks' High & Low Weather Summary

High73 °F (Oct 9, 3:00 PM)93% (Oct 3, 6:00 AM)30.31 "Hg (Oct 3, 6:00 AM)
Low30 °F (Oct 5, 8:00 AM)25% (Sep 28, 6:00 PM)29.49 "Hg (Oct 11, 12:00 AM)
Average53 °F60%30.05 "Hg
* Reported Sep 28 12:00 Noon — Oct 13 12:00 Noon, Cranbrook, Weather by CustomWeather, © 2015

Note: Actual official high and low records may vary slightly from our data, if they occured in-between our weather recording intervals... More about our weather records


Cranbrook weather history for previous 24 hours

Time TempWeatherWind HumidityBarometerVisibility
12:00 PM
Tue, Oct 13
52 °FPassing clouds.2 mph54%30.15 "Hg25 mi
11:00 AM48 °FPassing clouds.3 mph62%30.16 "Hg25 mi
10:00 AM45 °FPassing clouds.3 mph71%30.17 "Hg25 mi
9:00 AM41 °FPassing clouds.3 mph81%30.17 "Hg25 mi
8:00 AM39 °FPartly cloudy.2 mph81%30.17 "Hg25 mi
7:00 AM39 °FPassing clouds.No wind81%30.15 "Hg25 mi
6:00 AM41 °FPassing clouds.2 mph76%30.14 "Hg25 mi
5:00 AM41 °FPassing clouds.No wind76%30.13 "Hg25 mi
4:00 AM41 °FPartly cloudy.5 mph81%30.14 "Hg25 mi
3:00 AM39 °FPassing clouds.5 mph75%30.15 "Hg25 mi
2:00 AM45 °FPassing clouds.3 mph66%30.15 "Hg25 mi
1:00 AM45 °FPassing clouds.No wind61%30.14 "Hg25 mi
12:00 AM46 °FPassing clouds.3 mph57%30.14 "Hg25 mi
11:00 PM
Mon, Oct 12
46 °FPassing clouds.5 mph57%30.15 "Hg25 mi
10:00 PM48 °FPartly cloudy.5 mph54%30.14 "Hg25 mi
9:00 PM48 °FPassing clouds.5 mph54%30.14 "Hg25 mi
8:00 PM48 °FScattered clouds.No wind58%30.13 "Hg25 mi
7:00 PM52 °FBroken clouds.2 mph50%30.11 "Hg25 mi
6:00 PM54 °FBroken clouds.2 mph47%30.10 "Hg25 mi
5:00 PM55 °FScattered showers. Mostly cloudy.2 mph41%30.09 "Hg25 mi
4:00 PM55 °FScattered showers. Mostly cloudy.2 mph38%30.09 "Hg25 mi
3:00 PM54 °FPartly sunny.2 mph44%30.09 "Hg25 mi
2:00 PM52 °FPartly sunny.8 mph44%30.08 "Hg25 mi
1:00 PM54 °FPartly sunny.10 mph41%30.09 "Hg25 mi
Weather by CustomWeather, © 2015

See weather overviewHow to use our weather pages